Regional Weather Roundup
Issued by NWS

Home | Current Version | Previous Version | Graphics & Text | Print | Product List | Glossary Off
Versions: 1 2 3 4 5 6 7 8 9 10 11 12 13 14 15 16 17 18 19 20 21 22 23 24 25 26 27 28 29 30 31 32 33 34 35 36 37 38 39 40 41 42 43 44 45 46 47 48 49 50

000
ASUS43 KDMX 081801
RWRIA

WEATHER ROUNDUP FOR IOWA
NATIONAL WEATHER SERVICE DES MOINES IA
1200 PM CST THU DEC 08 2016

NOTE: "FAIR" INDICATES FEW OR NO CLOUDS BELOW 12,000 FEET WITH NO
SIGNIFICANT WEATHER AND/OR OBSTRUCTIONS TO VISIBILITY.

* - THESE STATIONS ARE NOT NWS STATIONS...THUS NOT UNDER NWS
QUALITY CONTROL.  THEY ALSO DO NOT REPORT WEATHER SUCH
AS PRECIPITATION OR FOG.

IAZ001>003-012>014-020>022-031>034-043>046-081900-
   NORTHWEST IOWA

CITY           SKY/WX    TMP DP  RH WIND       PRES   REMARKS
CARROLL *      PTSUNNY   18   9  68 NW22G31   30.52S WCI   0
CHEROKEE *     SUNNY     18   8  63 NW13G21   30.55S WCI   5
DENISON *      PTSUNNY   18   7  62 NW16      30.54F WCI   3
LE MARS *      SUNNY     18   7  62 W20G26    30.59S WCI   1
ORANGE CITY *  SUNNY     18   9  68 NW20G26   30.54S WCI   1
SHELDON *      CLOUDY    16   9  73 NW23G29   30.51S WCI  -2
SIOUX CITY     SUNNY     19   6  57 NW25      30.60S WCI   1
6HR MIN TEMP:  11; 6HR MAX TEMP:  19; 6HR PCP: TRACE;

SPENCER        CLOUDY    19   8  62 MISG      30.50S
6HR MIN TEMP:   9; 6HR MAX TEMP:  19;

STORM LAKE *   MOSUNNY   18   7  62 NW23G29   30.50F WCI   0
$$

IAZ055>058-069>071-079>083-090>094-081900-
   SOUTHWEST IOWA

CITY           SKY/WX    TMP DP  RH WIND       PRES   REMARKS
ATLANTIC *     MOSUNNY   19   9  63 NW20G30   30.56F WCI   4
AUDUBON *      SUNNY     18   9  68 NW8G21    30.53F WCI   7
CLARINDA *     MOSUNNY   21  10  63 NW17      30.61F WCI   7
COUNCIL BLFS * MOSUNNY   19   9  63 NW20      30.58F WCI   4
CRESTON *      PTSUNNY   19   7  58 W21G29    30.54S WCI   3
HARLAN  *      MOSUNNY   19   9  63 NW18G26   30.60F WCI   4
LAMONI         MOSUNNY   18   8  65 NW14G23   30.53F WCI   4
6HR MIN TEMP:  12; 6HR MAX TEMP:  19;

RED OAK *      PTSUNNY   21   9  58 W13G20    30.60F WCI   9
SHENANDOAH *   SUNNY     21   9  58 NW17G24   30.62F WCI   7
$$

IAZ047>049-059>061-072>074-084-081900-
   CENTRAL IOWA

CITY           SKY/WX    TMP DP  RH WIND       PRES   REMARKS
AMES           CLOUDY    20  11  68 NW17G26   30.49F WCI   5
6HR MIN TEMP:  11; 6HR MAX TEMP:  20;

ANKENY *       CLOUDY    21   9  58 W14       30.53S WCI   8
BOONE *        CLOUDY    19   9  63 NW22G30   30.47S WCI   3
CHARITON *     FLURRIES  19   9  63 W15G24    30.51F WCI   5
DES MOINES     PTSUNNY   21   8  57 NW22G28   30.51F WCI   5
6HR MIN TEMP:  12; 6HR MAX TEMP:  22;

GRINNELL*      FLURRIES  18  11  74 NW20G29   30.47S WCI   2
KNOXVILLE *    CLOUDY    19   7  58 NW17G24   30.49F WCI   4
MARSHALLTOWN   CLOUDY    18  10  71 W23G31    30.46S WCI   0
6HR MIN TEMP:  11; 6HR MAX TEMP:  18; 6HR PCP: TRACE;

NEWTON *       CLOUDY    18   9  68 NW15G25   30.48S WCI   3
PELLA *        PTSUNNY   19   9  64 W17       30.51F WCI   4
PERRY *          N/A     20  12  71 W22       30.52F WCI   4
$$

IAZ004>006-015-016-023>025-035-036-081900-
   NORTH CENTRAL IOWA

CITY           SKY/WX    TMP DP  RH WIND       PRES   REMARKS
ALGONA *       CLOUDY    19  12  73 NW22      30.46S WCI   3
CLARION *      CLOUDY    18  10  73 NW22G30   30.46S WCI   0
ESTHERVILLE    MOSUNNY   19  11  70 NW21G26   30.46S WCI   3
6HR MIN TEMP:  10; 6HR MAX TEMP:  20; 6HR PCP: TRACE;

FORT DODGE *   PTSUNNY   21  10  63 NW15G25   30.49F WCI   8
MASON CITY     FLURRIES  19  12  74 NW24      30.42S WCI   2
6HR MIN TEMP:  12; 6HR MAX TEMP:  20; 6HR PCP: TRACE;

WEBSTER CITY * CLOUDY    19  10  68 NW23G30   30.46S WCI   2
IOWA FALLS *   FLURRIES  20  13  76 NW23      30.45S WCI   3
$$

IAZ007>011-017>019-026>030-037>042-050>054-066-081900-
   NORTHEAST IOWA

CITY           SKY/WX    TMP DP  RH WIND       PRES   REMARKS
CEDAR RAPIDS   FLURRIES  18  14  84 W22G30    30.41F WCI   1
6HR MIN TEMP:  11; 6HR MAX TEMP:  18; 6HR PCP: TRACE;

CHARLES CITY * FLURRIES  21  14  73 NW23      30.39R WCI   5
CLINTON *      FLURRIES  19  14  81 W25       30.38S WCI   1
DECORAH *      CLOUDY    21  14  73 NW10G20   30.33R WCI  10
DUBUQUE        FLURRIES  19  14  81 W17       30.34S WCI   4
6HR MIN TEMP:  11; 6HR MAX TEMP:  19; 6HR PCP: TRACE;

MONTICELLO *   FLURRIES  21  14  73 NW20G26   30.38S WCI   6
OELWEIN *      FLURRIES  19  16  86 NW21G28   30.38R WCI   3
WATERLOO       FLURRIES  20  13  74 W18G26    30.41S WCI   5
6HR MIN TEMP:  12; 6HR MAX TEMP:  20; 6HR PCP: TRACE;

$$

IAZ064-065-067-068-078-081900-
   EAST CENTRAL IOWA

CITY           SKY/WX    TMP DP  RH WIND       PRES   REMARKS
DAVENPORT      CLOUDY    20  12  71 W22       30.40F WCI   3
6HR MIN TEMP:  14; 6HR MAX TEMP:  20; 6HR PCP: TRACE;

IOWA CITY      CLOUDY    20  11  68 W20       30.46S WCI   4
6HR MIN TEMP:  14; 6HR MAX TEMP:  20; 6HR PCP: TRACE;

MUSCATINE *    CLOUDY    21  10  63 W17       30.47R WCI   7
QUAD CITIES    FLURRIES  20  11  68 W15G24    30.42S WCI   6
6HR MIN TEMP:  16; 6HR MAX TEMP:  20; 6HR PCP: TRACE;

$$

IAZ062-063-075>077-085>089-095>099-081900-
   SOUTHEAST IOWA

CITY           SKY/WX    TMP DP  RH WIND       PRES   REMARKS
BURLINGTON     CLOUDY    19  10  68 NW13G22   30.47S WCI   6
6HR MIN TEMP:  15; 6HR MAX TEMP:  19;

FAIRFIELD *    CLOUDY    19   7  58 W20       30.48F WCI   4
FORT MADISON * CLOUDY    19  10  68 NW16G28   30.48F WCI   5
KEOKUK *       CLOUDY    23  10  58 W17       30.48F WCI   9
OSKALOOSA *    CLOUDY    19  10  68 NW20G31   30.50S WCI   3
CENTERVILLE *    N/A     19   9  63 W20       30.52S WCI   4
OTTUMWA        CLOUDY    19   7  59 NW13      30.49F WCI   6
6HR MIN TEMP:  13; 6HR MAX TEMP:  19;

WASHINGTON *   CLOUDY    19  12  73 W23       30.48S WCI   2
$$

ABBREVIATIONS USED IN REMARKS
   TC - TEMPERATURES IN CELSIUS
  WCI - WIND CHILL INDEX
   HX - HEAT INDEX
  VSB - VISIBILITY
$$




USA.gov is the U.S. government's official web portal to all federal, state and local government web resources and services.